{"data":{"norad_id":47695,"intl_designator":"2021-014E","name":"YAOGAN-31 03C","alt_names":[],"object_type":"PAYLOAD","status":"ACTIVE","operator":null,"country":"PRC","launch_date":"2021-02-24","launch_site_code":"JSC","launch_vehicle":null,"mission":null,"orbit_class":"UNKNOWN","rcs_meters":null,"size_class":null,"mass_kg":null,"dimensions":null,"purposes":[],"wikipedia_slug":null,"has_3d_model":false,"image_url":null,"decayed_at":null,"tle_current":{"epoch":"2026-05-25T04:47:11.501088Z","epoch_age_seconds":57591,"freshness":"FRESH","line1":"1 47695U 21014E   26145.19943867 -.00000045  00000+0  69598-4 0  9994","line2":"2 47695  63.4029 256.7778 0175156   0.8770 359.2531 13.45447786257636","mean_motion":13.45447786,"eccentricity":0.0175156,"inclination_deg":63.4029,"raan_deg":256.7778,"arg_perigee_deg":0.877,"mean_anomaly_deg":359.2531,"bstar":6.9598e-5,"rev_number":25763,"period_min":107.02756472483,"perigee_km":958.26193359073,"apogee_km":1219.8466043727,"semimajor_km":7467.1912689817,"source":"CELESTRAK","updated_at":"2026-05-25T13:37:56.514935Z"}}}